Time,TemperatureF,DewpointF,PressureIn,WindDirection,WindDirectionDegrees,WindSpeedMPH,WindSpeedGustMPH,Humidity,HourlyPrecipIn,Conditions,Clouds,dailyrainin,SolarRadiationWatts/m^2,SoftwareType,DateUTC
2013-04-19 00:00:00,20.3,-1.2,30.13,NW,315,10.0,22.0,38,0.00,,,0.00,0,WeatherCatV1.15B25,2013-04-19 06:00:00,
2013-04-19 00:05:00,20.5,-1.0,30.13,NW,315,9.0,28.0,38,0.00,,,0.00,0,WeatherCatV1.15B25,2013-04-19 06:05:00,
2013-04-19 00:10:00,20.5,-1.0,30.13,NW,315,9.0,28.0,38,0.00,,,0.00,0,WeatherCatV1.15B25,2013-04-19 06:10:00,
2013-04-19 00:15:00,20.5,-1.0,30.13,NW,315,9.0,28.0,38,0.00,,,0.00,0,WeatherCatV1.15B25,2013-04-19 06:15:00,
2013-04-19 00:20:00,20.2,-0.2,30.13,WNW,292,7.0,14.0,40,0.00,,,0.00,0,WeatherCatV1.15B25,2013-04-19 06:20:00,
2013-04-19 00:25:00,20.2,-0.2,30.13,WNW,292,7.0,14.0,40,0.00,,,0.00,0,WeatherCatV1.15B25,2013-04-19 06:25:00,
2013-04-19 00:30:00,20.2,-0.2,30.13,WNW,292,7.0,14.0,40,0.00,,,0.00,0,WeatherCatV1.15B25,2013-04-19 06:30:00,
2013-04-19 00:35:00,19.9,0.0,30.13,SW,225,6.0,14.0,41,0.00,,,0.00,0,WeatherCatV1.15B25,2013-04-19 06:35:00,
2013-04-19 00:40:00,19.9,0.0,30.13,SW,225,6.0,14.0,41,0.00,,,0.00,0,WeatherCatV1.15B25,2013-04-19 06:40:00,
2013-04-19 00:45:00,19.9,0.0,30.13,SW,225,6.0,14.0,41,0.00,,,0.00,0,WeatherCatV1.15B25,2013-04-19 06:45:00,
2013-04-19 00:50:00,18.3,1.5,30.14,South,180,3.0,8.0,47,0.00,,,0.00,0,WeatherCatV1.15B25,2013-04-19 06:50:00,
2013-04-19 00:55:00,18.3,1.5,30.14,South,180,3.0,8.0,47,0.00,,,0.00,0,WeatherCatV1.15B25,2013-04-19 06:55:00,
2013-04-19 01:00:00,18.3,1.5,30.14,South,180,3.0,8.0,47,0.00,,,0.00,0,WeatherCatV1.15B25,2013-04-19 07:00:00,
2013-04-19 01:05:00,17.2,1.8,30.14,SSE,158,0.0,3.0,50,0.00,,,0.00,0,WeatherCatV1.15B25,2013-04-19 07:05:00,
2013-04-19 01:10:00,17.2,1.8,30.14,SSE,158,0.0,3.0,50,0.00,,,0.00,0,WeatherCatV1.15B25,2013-04-19 07:10:00,
2013-04-19 01:15:00,17.2,1.8,30.14,SSE,158,0.0,3.0,50,0.00,,,0.00,0,WeatherCatV1.15B25,2013-04-19 07:15:00,
2013-04-19 01:20:00,15.6,2.3,30.14,SSE,158,1.0,5.0,55,0.00,,,0.00,0,WeatherCatV1.15B25,2013-04-19 07:20:00,
2013-04-19 01:25:00,15.6,2.3,30.14,SSE,158,1.0,5.0,55,0.00,,,0.00,0,WeatherCatV1.15B25,2013-04-19 07:25:00,
2013-04-19 01:30:00,15.6,1.1,30.14,ENE,68,2.0,7.0,52,0.00,,,0.00,0,WeatherCatV1.15B25,2013-04-19 07:30:00,
2013-04-19 01:35:00,15.6,1.1,30.14,ENE,68,2.0,7.0,52,0.00,,,0.00,0,WeatherCatV1.15B25,2013-04-19 07:35:00,
2013-04-19 01:40:00,15.6,1.1,30.14,ENE,68,2.0,7.0,52,0.00,,,0.00,0,WeatherCatV1.15B25,2013-04-19 07:40:00,
2013-04-19 01:45:00,16.2,2.1,30.13,East,90,2.0,7.0,53,0.00,,,0.00,0,WeatherCatV1.15B25,2013-04-19 07:45:00,
2013-04-19 01:50:00,16.2,2.1,30.13,East,90,2.0,7.0,53,0.00,,,0.00,0,WeatherCatV1.15B25,2013-04-19 07:50:00,
2013-04-19 01:55:00,16.2,2.1,30.13,East,90,2.0,7.0,53,0.00,,,0.00,0,WeatherCatV1.15B25,2013-04-19 07:55:00,
2013-04-19 02:00:00,18.8,3.3,30.13,ESE,112,5.0,19.0,50,0.00,,,0.00,0,WeatherCatV1.15B25,2013-04-19 08:00:00,
2013-04-19 02:05:00,18.8,3.3,30.13,ESE,112,5.0,19.0,50,0.00,,,0.00,0,WeatherCatV1.15B25,2013-04-19 08:05:00,
2013-04-19 02:10:00,18.8,3.3,30.13,ESE,112,5.0,19.0,50,0.00,,,0.00,0,WeatherCatV1.15B25,2013-04-19 08:10:00,
2013-04-19 02:15:00,18.8,3.3,30.13,ESE,112,5.0,19.0,50,0.00,,,0.00,0,WeatherCatV1.15B25,2013-04-19 08:15:00,
2013-04-19 02:20:00,21.8,3.8,30.12,West,270,13.0,28.0,45,0.00,,,0.00,0,WeatherCatV1.15B25,2013-04-19 08:20:00,
2013-04-19 02:25:00,21.8,3.8,30.12,West,270,13.0,28.0,45,0.00,,,0.00,0,WeatherCatV1.15B25,2013-04-19 08:25:00,
2013-04-19 02:30:00,21.8,3.8,30.12,West,270,13.0,28.0,45,0.00,,,0.00,0,WeatherCatV1.15B25,2013-04-19 08:30:00,
2013-04-19 02:35:00,21.9,3.8,30.12,NW,315,13.0,26.0,45,0.00,,,0.00,0,WeatherCatV1.15B25,2013-04-19 08:35:00,
2013-04-19 02:40:00,21.9,3.8,30.12,NW,315,13.0,26.0,45,0.00,,,0.00,0,WeatherCatV1.15B25,2013-04-19 08:40:00,
2013-04-19 02:45:00,21.9,3.8,30.12,NW,315,13.0,26.0,45,0.00,,,0.00,0,WeatherCatV1.15B25,2013-04-19 08:45:00,
2013-04-19 02:50:00,21.4,2.9,30.12,WNW,292,13.0,25.0,44,0.00,,,0.00,0,WeatherCatV1.15B25,2013-04-19 08:50:00,
2013-04-19 02:55:00,21.4,2.9,30.12,WNW,292,13.0,25.0,44,0.00,,,0.00,0,WeatherCatV1.15B25,2013-04-19 08:55:00,
2013-04-19 03:00:00,21.4,2.9,30.12,WNW,292,13.0,25.0,44,0.00,,,0.00,0,WeatherCatV1.15B25,2013-04-19 09:00:00,
2013-04-19 03:05:00,21.3,3.3,30.12,NW,315,14.0,29.0,45,0.00,,,0.00,0,WeatherCatV1.15B25,2013-04-19 09:05:00,
2013-04-19 03:10:00,21.3,3.3,30.12,NW,315,14.0,29.0,45,0.00,,,0.00,0,WeatherCatV1.15B25,2013-04-19 09:10:00,
2013-04-19 03:15:00,21.3,3.3,30.12,NW,315,14.0,29.0,45,0.00,,,0.00,0,WeatherCatV1.15B25,2013-04-19 09:15:00,
2013-04-19 03:20:00,21.3,3.3,30.12,NW,315,13.0,27.0,45,0.00,,,0.00,0,WeatherCatV1.15B25,2013-04-19 09:20:00,
2013-04-19 03:25:00,21.3,3.3,30.12,NW,315,13.0,27.0,45,0.00,,,0.00,0,WeatherCatV1.15B25,2013-04-19 09:25:00,
2013-04-19 03:30:00,21.3,3.3,30.12,NW,315,13.0,27.0,45,0.00,,,0.00,0,WeatherCatV1.15B25,2013-04-19 09:30:00,
2013-04-19 03:35:00,21.8,3.3,30.13,WSW,248,10.0,25.0,44,0.00,,,0.00,0,WeatherCatV1.15B25,2013-04-19 09:35:00,
2013-04-19 03:40:00,21.8,3.3,30.13,WSW,248,10.0,25.0,44,0.00,,,0.00,0,WeatherCatV1.15B25,2013-04-19 09:40:00,
2013-04-19 03:45:00,21.8,3.3,30.13,WSW,248,10.0,25.0,44,0.00,,,0.00,0,WeatherCatV1.15B25,2013-04-19 09:45:00,
2013-04-19 03:50:00,19.2,2.8,30.12,ESE,112,6.0,14.0,48,0.00,,,0.00,0,WeatherCatV1.15B25,2013-04-19 09:50:00,
2013-04-19 03:55:00,19.2,2.8,30.12,ESE,112,6.0,14.0,48,0.00,,,0.00,0,WeatherCatV1.15B25,2013-04-19 09:55:00,
2013-04-19 04:00:00,19.2,2.8,30.12,ESE,112,6.0,14.0,48,0.00,,,0.00,0,WeatherCatV1.15B25,2013-04-19 10:00:00,
2013-04-19 04:05:00,17.5,3.3,30.13,ESE,112,3.0,9.0,53,0.00,,,0.00,0,WeatherCatV1.15B25,2013-04-19 10:05:00,
2013-04-19 04:10:00,17.5,3.3,30.13,ESE,112,3.0,9.0,53,0.00,,,0.00,0,WeatherCatV1.15B25,2013-04-19 10:10:00,
2013-04-19 04:15:00,17.5,3.3,30.13,ESE,112,3.0,9.0,53,0.00,,,0.00,0,WeatherCatV1.15B25,2013-04-19 10:15:00,
2013-04-19 04:20:00,16.9,3.6,30.13,SSE,158,4.0,10.0,55,0.00,,,0.00,0,WeatherCatV1.15B25,2013-04-19 10:20:00,
2013-04-19 04:25:00,16.9,3.6,30.13,SSE,158,4.0,10.0,55,0.00,,,0.00,0,WeatherCatV1.15B25,2013-04-19 10:25:00,
2013-04-19 04:30:00,16.9,3.6,30.13,SSE,158,4.0,10.0,55,0.00,,,0.00,0,WeatherCatV1.15B25,2013-04-19 10:30:00,
2013-04-19 04:35:00,16.1,3.2,30.13,SE,135,0.0,3.0,56,0.00,,,0.00,0,WeatherCatV1.15B25,2013-04-19 10:35:00,
2013-04-19 04:40:00,16.1,3.2,30.13,SE,135,0.0,3.0,56,0.00,,,0.00,0,WeatherCatV1.15B25,2013-04-19 10:40:00,
2013-04-19 04:45:00,16.1,3.2,30.13,SE,135,0.0,3.0,56,0.00,,,0.00,0,WeatherCatV1.15B25,2013-04-19 10:45:00,
2013-04-19 04:50:00,15.4,3.3,30.13,SE,135,1.0,3.0,58,0.00,,,0.00,0,WeatherCatV1.15B25,2013-04-19 10:50:00,
2013-04-19 04:55:00,15.4,3.3,30.13,SE,135,1.0,3.0,58,0.00,,,0.00,0,WeatherCatV1.15B25,2013-04-19 10:55:00,
2013-04-19 05:07:00,15.4,3.3,30.13,SE,135,1.0,3.0,58,0.00,,,0.00,0,WeatherCatV1.15B25,2013-04-19 11:07:00,
2013-04-19 05:12:00,16.9,4.0,30.13,WSW,257,5.0,7.0,56,0.00,,,0.00,0,WeatherCatV1.15B25,2013-04-19 11:12:00,
2013-04-19 05:17:00,17.7,4.3,30.12,SW,226,7.0,8.0,55,0.00,,,0.00,0,WeatherCatV1.15B25,2013-04-19 11:17:00,
2013-04-19 05:22:00,18.3,4.1,30.12,West,275,16.0,21.0,53,0.00,,,0.00,0,WeatherCatV1.15B25,2013-04-19 11:22:00,
2013-04-19 05:25:00,19.2,4.5,30.12,WSW,241,17.0,24.0,52,0.00,,,0.00,0,WeatherCatV1.15B25,2013-04-19 11:25:00,
2013-04-19 05:30:00,21.0,5.3,30.12,SW,216,16.0,20.0,50,0.00,,,0.00,0,WeatherCatV1.15B25,2013-04-19 11:30:00,
2013-04-19 05:35:00,21.8,4.7,30.12,WNW,289,11.0,18.0,47,0.00,,,0.00,0,WeatherCatV1.15B25,2013-04-19 11:35:00,
2013-04-19 05:40:00,22.1,5.0,30.12,West,270,17.0,20.0,47,0.00,,,0.00,0,WeatherCatV1.15B25,2013-04-19 11:40:00,
2013-04-19 05:45:00,22.2,5.1,30.11,SW,223,22.0,25.0,47,0.00,,,0.00,0,WeatherCatV1.15B25,2013-04-19 11:45:00,
2013-04-19 05:50:00,22.4,5.3,30.11,WNW,295,17.0,31.0,47,0.00,,,0.00,0,WeatherCatV1.15B25,2013-04-19 11:50:00,
2013-04-19 05:55:00,22.4,5.3,30.11,NW,312,12.0,30.0,47,0.00,,,0.00,0,WeatherCatV1.15B25,2013-04-19 11:55:00,
2013-04-19 06:00:00,22.2,5.1,30.11,WNW,298,7.0,37.0,47,0.00,,,0.00,0,WeatherCatV1.15B25,2013-04-19 12:00:00,
2013-04-19 06:05:00,22.2,5.1,30.11,North,0,12.0,25.0,47,0.00,,,0.00,0,WeatherCatV1.15B25,2013-04-19 12:05:00,
2013-04-19 06:10:00,22.4,4.8,30.11,West,280,20.0,32.0,46,0.00,,,0.00,0,WeatherCatV1.15B25,2013-04-19 12:10:00,
2013-04-19 06:15:00,22.7,5.1,30.11,NW,308,25.0,37.0,46,0.00,,,0.00,0,WeatherCatV1.15B25,2013-04-19 12:15:00,
2013-04-19 06:20:00,22.9,5.2,30.11,NW,326,13.0,28.0,46,0.00,,,0.00,5,WeatherCatV1.15B25,2013-04-19 12:20:00,
2013-04-19 06:25:00,22.7,5.1,30.11,NW,308,18.0,22.0,46,0.00,,,0.00,7,WeatherCatV1.15B25,2013-04-19 12:25:00,
2013-04-19 06:30:00,22.7,5.1,30.12,NNW,335,20.0,26.0,46,0.00,,,0.00,9,WeatherCatV1.15B25,2013-04-19 12:30:00,
2013-04-19 06:35:00,22.7,5.1,30.12,West,270,17.0,21.0,46,0.00,,,0.00,12,WeatherCatV1.15B25,2013-04-19 12:35:00,
2013-04-19 06:40:00,22.9,5.2,30.12,NW,325,14.0,29.0,46,0.00,,,0.00,19,WeatherCatV1.15B25,2013-04-19 12:40:00,
2013-04-19 06:45:00,23.0,5.3,30.12,WNW,298,14.0,30.0,46,0.00,,,0.00,23,WeatherCatV1.15B25,2013-04-19 12:45:00,
2013-04-19 06:50:00,23.0,5.8,30.12,NW,323,17.0,25.0,47,0.00,,,0.00,26,WeatherCatV1.15B25,2013-04-19 12:50:00,
2013-04-19 06:55:00,22.9,5.7,30.12,WSW,240,22.0,22.0,47,0.00,,,0.00,30,WeatherCatV1.15B25,2013-04-19 12:55:00,
2013-04-19 07:00:00,23.0,5.8,30.13,WNW,288,13.0,20.0,47,0.00,,,0.00,33,WeatherCatV1.15B25,2013-04-19 13:00:00,
2013-04-19 07:05:00,23.3,5.6,30.13,NW,320,19.0,20.0,46,0.00,,,0.00,42,WeatherCatV1.15B25,2013-04-19 13:05:00,
2013-04-19 07:10:00,23.6,5.4,30.13,West,271,9.0,25.0,45,0.00,,,0.00,127,WeatherCatV1.15B25,2013-04-19 13:10:00,
2013-04-19 07:15:00,23.9,5.7,30.13,NNE,25,9.0,24.0,45,0.00,,,0.00,146,WeatherCatV1.15B25,2013-04-19 13:15:00,
2013-04-19 07:20:00,24.2,6.0,30.13,WNW,299,9.0,29.0,45,0.00,,,0.00,167,WeatherCatV1.15B25,2013-04-19 13:20:00,
2013-04-19 07:25:00,24.2,6.0,30.13,North,359,14.0,24.0,45,0.00,,,0.00,183,WeatherCatV1.15B25,2013-04-19 13:25:00,
2013-04-19 07:30:00,24.4,6.1,30.12,NW,318,14.0,26.0,45,0.00,,,0.00,202,WeatherCatV1.15B25,2013-04-19 13:30:00,
2013-04-19 07:35:00,24.4,6.1,30.12,NW,308,13.0,27.0,45,0.00,,,0.00,222,WeatherCatV1.15B25,2013-04-19 13:35:00,
2013-04-19 07:40:00,24.7,5.9,30.12,NW,308,12.0,31.0,44,0.00,,,0.00,239,WeatherCatV1.15B25,2013-04-19 13:40:00,
2013-04-19 07:45:00,25.1,6.3,30.12,NNW,329,17.0,22.0,44,0.00,,,0.00,259,WeatherCatV1.15B25,2013-04-19 13:45:00,
2013-04-19 07:50:00,25.4,6.6,30.12,NNW,340,15.0,18.0,44,0.00,,,0.00,276,WeatherCatV1.15B25,2013-04-19 13:50:00,
2013-04-19 07:55:00,25.8,6.4,30.12,NW,304,13.0,17.0,43,0.00,,,0.00,299,WeatherCatV1.15B25,2013-04-19 13:55:00,
2013-04-19 08:00:00,26.1,6.7,30.12,NW,323,15.0,27.0,43,0.00,,,0.00,320,WeatherCatV1.15B25,2013-04-19 14:00:00,
2013-04-19 08:05:00,26.4,7.0,30.12,NW,306,16.0,22.0,43,0.00,,,0.00,338,WeatherCatV1.15B25,2013-04-19 14:05:00,
2013-04-19 08:10:00,26.4,7.5,30.12,NNW,335,13.0,21.0,44,0.00,,,0.00,355,WeatherCatV1.15B25,2013-04-19 14:10:00,
2013-04-19 08:15:00,26.6,7.2,30.13,NW,308,21.0,28.0,43,0.00,,,0.00,373,WeatherCatV1.15B25,2013-04-19 14:15:00,
2013-04-19 08:20:00,26.7,7.2,30.13,NW,315,16.0,25.0,43,0.00,,,0.00,396,WeatherCatV1.15B25,2013-04-19 14:20:00,
2013-04-19 08:25:00,27.2,7.7,30.13,NNW,342,14.0,22.0,43,0.00,,,0.00,415,WeatherCatV1.15B25,2013-04-19 14:25:00,
2013-04-19 08:30:00,27.5,7.5,30.12,NNW,335,12.0,21.0,42,0.00,,,0.00,433,WeatherCatV1.15B25,2013-04-19 14:30:00,
2013-04-19 08:35:00,27.9,7.8,30.12,NNW,335,19.0,26.0,42,0.00,,,0.00,452,WeatherCatV1.15B25,2013-04-19 14:35:00,
2013-04-19 08:40:00,28.1,7.5,30.12,NNW,336,7.0,14.0,41,0.00,,,0.00,472,WeatherCatV1.15B25,2013-04-19 14:40:00,
2013-04-19 08:45:00,28.5,7.8,30.12,WSW,240,11.0,24.0,41,0.00,,,0.00,491,WeatherCatV1.15B25,2013-04-19 14:45:00,
2013-04-19 08:50:00,28.7,7.5,30.12,WSW,257,15.0,20.0,40,0.00,,,0.00,510,WeatherCatV1.15B25,2013-04-19 14:50:00,
2013-04-19 08:55:00,28.8,6.4,30.12,WNW,301,8.0,22.0,38,0.00,,,0.00,528,WeatherCatV1.15B25,2013-04-19 14:55:00,
2013-04-19 09:00:00,29.1,7.3,30.12,WNW,295,20.0,22.0,39,0.00,,,0.00,549,WeatherCatV1.15B25,2013-04-19 15:00:00,
2013-04-19 09:05:00,28.8,7.6,30.12,West,275,4.0,24.0,40,0.00,,,0.00,567,WeatherCatV1.15B25,2013-04-19 15:05:00,
2013-04-19 09:10:00,29.0,7.7,30.12,West,270,20.0,22.0,40,0.00,,,0.00,584,WeatherCatV1.15B25,2013-04-19 15:10:00,
2013-04-19 09:15:00,29.0,8.3,30.12,WSW,254,16.0,26.0,41,0.00,,,0.00,602,WeatherCatV1.15B25,2013-04-19 15:15:00,
2013-04-19 09:20:00,29.1,8.4,30.12,West,272,22.0,22.0,41,0.00,,,0.00,621,WeatherCatV1.15B25,2013-04-19 15:20:00,
2013-04-19 09:25:00,29.1,7.3,30.12,West,268,6.0,26.0,39,0.00,,,0.00,637,WeatherCatV1.15B25,2013-04-19 15:25:00,
2013-04-19 09:30:00,29.4,7.5,30.12,West,260,18.0,24.0,39,0.00,,,0.00,656,WeatherCatV1.15B25,2013-04-19 15:30:00,
2013-04-19 09:35:00,29.5,8.7,30.12,West,278,13.0,26.0,41,0.00,,,0.00,670,WeatherCatV1.15B25,2013-04-19 15:35:00,
2013-04-19 09:40:00,29.7,8.9,30.12,West,263,19.0,24.0,41,0.00,,,0.00,686,WeatherCatV1.15B25,2013-04-19 15:40:00,
2013-04-19 09:45:00,29.8,9.0,30.11,NW,308,11.0,17.0,41,0.00,,,0.00,702,WeatherCatV1.15B25,2013-04-19 15:45:00,
2013-04-19 09:50:00,30.1,8.7,30.11,West,265,7.0,19.0,40,0.00,,,0.00,684,WeatherCatV1.15B25,2013-04-19 15:50:00,
2013-04-19 09:55:00,31.0,9.0,30.11,SSW,192,13.0,19.0,39,0.00,,,0.00,695,WeatherCatV1.15B25,2013-04-19 15:55:00,
2013-04-19 10:00:00,31.5,8.9,30.11,SW,223,11.0,26.0,38,0.00,,,0.00,711,WeatherCatV1.15B25,2013-04-19 16:00:00,
2013-04-19 10:05:00,31.3,8.7,30.11,WNW,296,25.0,26.0,38,0.00,,,0.00,723,WeatherCatV1.15B25,2013-04-19 16:05:00,
2013-04-19 10:10:00,31.2,8.6,30.11,SW,227,20.0,20.0,38,0.00,,,0.00,737,WeatherCatV1.15B25,2013-04-19 16:10:00,
2013-04-19 10:15:00,31.3,9.2,30.11,WSW,240,14.0,24.0,39,0.00,,,0.00,751,WeatherCatV1.15B25,2013-04-19 16:15:00,
2013-04-19 10:20:00,31.8,10.8,30.11,WSW,248,10.0,13.0,41,0.00,,,0.00,762,WeatherCatV1.15B25,2013-04-19 16:20:00,
2013-04-19 10:25:00,31.9,9.2,30.11,SSW,208,9.0,26.0,38,0.00,,,0.00,774,WeatherCatV1.15B25,2013-04-19 16:25:00,
2013-04-19 10:30:00,31.8,9.7,30.11,SW,219,12.0,19.0,39,0.00,,,0.00,785,WeatherCatV1.15B25,2013-04-19 16:30:00,
2013-04-19 10:35:00,32.4,11.9,30.11,SW,224,6.0,14.0,42,0.00,,,0.00,799,WeatherCatV1.15B25,2013-04-19 16:35:00,
2013-04-19 10:40:00,32.7,9.9,30.11,SW,232,8.0,28.0,38,0.00,,,0.00,815,WeatherCatV1.15B25,2013-04-19 16:40:00,
2013-04-19 10:45:00,32.7,10.5,30.11,West,263,16.0,22.0,39,0.00,,,0.00,823,WeatherCatV1.15B25,2013-04-19 16:45:00,
2013-04-19 10:50:00,32.9,10.7,30.11,WNW,295,16.0,26.0,39,0.00,,,0.00,845,WeatherCatV1.15B25,2013-04-19 16:50:00,
2013-04-19 10:55:00,32.8,10.0,30.11,WNW,285,17.0,21.0,38,0.00,,,0.00,750,WeatherCatV1.15B25,2013-04-19 16:55:00,
2013-04-19 11:00:00,33.1,10.9,30.10,WSW,254,11.0,28.0,39,0.00,,,0.00,864,WeatherCatV1.15B25,2013-04-19 17:00:00,
2013-04-19 11:05:00,33.4,10.6,30.10,SSW,200,16.0,27.0,38,0.00,,,0.00,746,WeatherCatV1.15B25,2013-04-19 17:05:00,
2013-04-19 11:10:00,33.7,12.0,30.10,West,263,22.0,25.0,40,0.00,,,0.00,774,WeatherCatV1.15B25,2013-04-19 17:10:00,
2013-04-19 11:15:00,34.0,11.1,30.10,WSW,258,14.0,18.0,38,0.00,,,0.00,894,WeatherCatV1.15B25,2013-04-19 17:15:00,
2013-04-19 11:20:00,34.3,11.9,30.10,WNW,285,11.0,17.0,39,0.00,,,0.00,896,WeatherCatV1.15B25,2013-04-19 17:20:00,
2013-04-19 11:25:00,34.7,11.7,30.10,WSW,240,10.0,25.0,38,0.00,,,0.00,903,WeatherCatV1.15B25,2013-04-19 17:25:00,
2013-04-19 11:30:00,34.9,11.3,30.10,WSW,244,25.0,27.0,37,0.00,,,0.00,908,WeatherCatV1.15B25,2013-04-19 17:30:00,
2013-04-19 11:35:00,34.7,11.7,30.10,WSW,256,15.0,18.0,38,0.00,,,0.00,915,WeatherCatV1.15B25,2013-04-19 17:35:00,
2013-04-19 11:40:00,35.0,12.0,30.10,West,280,18.0,22.0,38,0.00,,,0.00,918,WeatherCatV1.15B25,2013-04-19 17:40:00,
2013-04-19 11:45:00,35.3,13.4,30.09,NW,308,24.0,24.0,40,0.00,,,0.00,927,WeatherCatV1.15B25,2013-04-19 17:45:00,
2013-04-19 11:50:00,35.8,11.5,30.09,NW,308,11.0,21.0,36,0.00,,,0.00,929,WeatherCatV1.15B25,2013-04-19 17:50:00,
2013-04-19 11:55:00,35.8,12.7,30.09,WSW,243,14.0,20.0,38,0.00,,,0.00,941,WeatherCatV1.15B25,2013-04-19 17:55:00,
2013-04-19 12:00:00,36.0,13.5,30.09,West,268,18.0,27.0,39,0.00,,,0.00,952,WeatherCatV1.15B25,2013-04-19 18:00:00,
2013-04-19 12:05:00,36.3,14.9,30.09,SSW,203,7.0,14.0,41,0.00,,,0.00,950,WeatherCatV1.15B25,2013-04-19 18:05:00,
2013-04-19 12:10:00,36.9,13.1,30.09,WNW,291,18.0,20.0,37,0.00,,,0.00,959,WeatherCatV1.15B25,2013-04-19 18:10:00,
2013-04-19 12:15:00,36.5,13.3,30.09,SW,230,3.0,19.0,38,0.00,,,0.00,962,WeatherCatV1.15B25,2013-04-19 18:15:00,
2013-04-19 12:20:00,36.9,13.7,30.09,West,260,18.0,27.0,38,0.00,,,0.00,966,WeatherCatV1.15B25,2013-04-19 18:20:00,
2013-04-19 12:25:00,36.9,14.3,30.09,SW,234,8.0,26.0,39,0.00,,,0.00,943,WeatherCatV1.15B25,2013-04-19 18:25:00,
2013-04-19 12:30:00,37.0,15.5,30.09,SW,233,10.0,20.0,41,0.00,,,0.00,954,WeatherCatV1.15B25,2013-04-19 18:30:00,
2013-04-19 12:35:00,37.6,14.3,30.09,West,263,15.0,24.0,38,0.00,,,0.00,970,WeatherCatV1.15B25,2013-04-19 18:35:00,
2013-04-19 12:40:00,37.9,14.6,30.09,NW,304,17.0,21.0,38,0.00,,,0.00,970,WeatherCatV1.15B25,2013-04-19 18:40:00,
2013-04-19 12:45:00,38.3,14.3,30.08,SSW,209,14.0,20.0,37,0.00,,,0.00,971,WeatherCatV1.15B25,2013-04-19 18:45:00,
2013-04-19 12:50:00,38.6,13.3,30.08,SW,222,7.0,16.0,35,0.00,,,0.00,971,WeatherCatV1.15B25,2013-04-19 18:50:00,
2013-04-19 12:55:00,39.3,15.8,30.08,WSW,257,17.0,20.0,38,0.00,,,0.00,971,WeatherCatV1.15B25,2013-04-19 18:55:00,
2013-04-19 13:00:00,38.9,13.0,30.08,SW,229,6.0,25.0,34,0.00,,,0.00,975,WeatherCatV1.15B25,2013-04-19 19:00:00,
2013-04-19 13:05:00,39.1,13.1,30.08,West,275,12.0,26.0,34,0.00,,,0.00,973,WeatherCatV1.15B25,2013-04-19 19:05:00,
2013-04-19 13:10:00,39.2,13.2,30.08,WSW,246,19.0,20.0,34,0.00,,,0.00,973,WeatherCatV1.15B25,2013-04-19 19:10:00,
2013-04-19 13:15:00,39.8,13.7,30.07,SSW,199,11.0,21.0,34,0.00,,,0.00,973,WeatherCatV1.15B25,2013-04-19 19:15:00,
2013-04-19 13:20:00,40.2,14.1,30.07,SW,216,7.0,27.0,34,0.00,,,0.00,966,WeatherCatV1.15B25,2013-04-19 19:20:00,
2013-04-19 13:25:00,40.5,11.5,30.07,West,260,8.0,25.0,30,0.00,,,0.00,975,WeatherCatV1.15B25,2013-04-19 19:25:00,
2013-04-19 13:30:00,40.8,14.0,30.06,WSW,254,13.0,17.0,33,0.00,,,0.00,968,WeatherCatV1.15B25,2013-04-19 19:30:00,
2013-04-19 13:35:00,41.1,13.5,30.06,SW,227,10.0,17.0,32,0.00,,,0.00,970,WeatherCatV1.15B25,2013-04-19 19:35:00,
2013-04-19 13:40:00,41.2,11.4,30.06,SW,234,3.0,30.0,29,0.00,,,0.00,966,WeatherCatV1.15B25,2013-04-19 19:40:00,
2013-04-19 13:45:00,41.5,10.9,30.06,SW,233,20.0,20.0,28,0.00,,,0.00,971,WeatherCatV1.15B25,2013-04-19 19:45:00,
2013-04-19 13:50:00,41.8,11.9,30.06,WSW,243,13.0,19.0,29,0.00,,,0.00,955,WeatherCatV1.15B25,2013-04-19 19:50:00,
2013-04-19 13:55:00,42.2,13.8,30.06,SSW,210,6.0,26.0,31,0.00,,,0.00,959,WeatherCatV1.15B25,2013-04-19 19:55:00,
2013-04-19 14:00:00,42.8,15.0,30.06,West,281,5.0,18.0,32,0.00,,,0.00,954,WeatherCatV1.15B25,2013-04-19 20:00:00,
2013-04-19 14:05:00,43.1,13.8,30.06,South,179,16.0,20.0,30,0.00,,,0.00,964,WeatherCatV1.15B25,2013-04-19 20:05:00,
2013-04-19 14:10:00,42.8,12.8,30.06,SSW,196,9.0,22.0,29,0.00,,,0.00,973,WeatherCatV1.15B25,2013-04-19 20:10:00,
2013-04-19 14:15:00,43.2,12.3,30.06,SW,216,6.0,18.0,28,0.00,,,0.00,966,WeatherCatV1.15B25,2013-04-19 20:15:00,
2013-04-19 14:20:00,43.5,12.6,30.06,WSW,239,16.0,25.0,28,0.00,,,0.00,984,WeatherCatV1.15B25,2013-04-19 20:20:00,
2013-04-19 14:25:00,43.3,12.4,30.06,NW,311,10.0,10.0,28,0.00,,,0.00,992,WeatherCatV1.15B25,2013-04-19 20:25:00,
2013-04-19 14:30:00,43.3,12.4,30.06,WSW,256,11.0,20.0,28,0.00,,,0.00,971,WeatherCatV1.15B25,2013-04-19 20:30:00,
2013-04-19 14:35:00,43.8,12.8,30.06,SW,226,7.0,17.0,28,0.00,,,0.00,992,WeatherCatV1.15B25,2013-04-19 20:35:00,
2013-04-19 14:40:00,43.8,12.8,30.06,West,267,15.0,21.0,28,0.00,,,0.00,1013,WeatherCatV1.15B25,2013-04-19 20:40:00,
2013-04-19 14:45:00,43.9,15.2,30.05,SW,229,7.0,20.0,31,0.00,,,0.00,978,WeatherCatV1.15B25,2013-04-19 20:45:00,
2013-04-19 14:50:00,44.3,13.3,30.05,SW,220,9.0,19.0,28,0.00,,,0.00,971,WeatherCatV1.15B25,2013-04-19 20:50:00,
2013-04-19 14:55:00,44.5,15.8,30.05,SSW,195,8.0,16.0,31,0.00,,,0.00,992,WeatherCatV1.15B25,2013-04-19 20:55:00,
2013-04-19 15:00:00,44.6,15.9,30.05,WSW,248,7.0,14.0,31,0.00,,,0.00,896,WeatherCatV1.15B25,2013-04-19 21:00:00,
2013-04-19 15:05:00,44.6,12.7,30.05,NNW,332,8.0,8.0,27,0.00,,,0.00,918,WeatherCatV1.15B25,2013-04-19 21:05:00,
2013-04-19 15:10:00,44.8,12.9,30.05,West,272,11.0,18.0,27,0.00,,,0.00,890,WeatherCatV1.15B25,2013-04-19 21:10:00,
2013-04-19 15:15:00,44.5,13.4,30.05,West,267,7.0,18.0,28,0.00,,,0.00,890,WeatherCatV1.15B25,2013-04-19 21:15:00,
2013-04-19 15:21:00,44.9,16.1,30.05,SW,224,10.0,19.0,31,0.00,,,0.00,897,WeatherCatV1.15B25,2013-04-19 21:21:00,
2013-04-19 15:26:00,44.9,13.8,30.05,WSW,251,14.0,22.0,28,0.00,,,0.00,860,WeatherCatV1.15B25,2013-04-19 21:26:00,
2013-04-19 15:31:00,44.3,12.5,30.04,SW,226,19.0,20.0,27,0.00,,,0.00,896,WeatherCatV1.15B25,2013-04-19 21:31:00,
2013-04-19 15:36:00,44.2,13.2,30.04,WSW,246,16.0,27.0,28,0.00,,,0.00,841,WeatherCatV1.15B25,2013-04-19 21:36:00,
2013-04-19 15:41:00,43.9,15.2,30.04,SW,236,17.0,25.0,31,0.00,,,0.00,818,WeatherCatV1.15B25,2013-04-19 21:41:00,
2013-04-19 15:46:00,43.8,15.2,30.03,West,275,12.0,22.0,31,0.00,,,0.00,822,WeatherCatV1.15B25,2013-04-19 21:46:00,
2013-04-19 15:51:00,44.2,14.0,30.03,SSW,202,19.0,24.0,29,0.00,,,0.00,801,WeatherCatV1.15B25,2013-04-19 21:51:00,
2013-04-19 15:56:00,44.2,16.9,30.03,WSW,256,14.0,19.0,33,0.00,,,0.00,797,WeatherCatV1.15B25,2013-04-19 21:56:00,
2013-04-19 16:01:00,44.5,12.6,30.03,SSW,208,3.0,19.0,27,0.00,,,0.00,808,WeatherCatV1.15B25,2013-04-19 22:01:00,
2013-04-19 16:06:00,44.2,13.2,30.03,WSW,248,15.0,25.0,28,0.00,,,0.00,778,WeatherCatV1.15B25,2013-04-19 22:06:00,
2013-04-19 16:11:00,44.1,12.3,30.03,SW,215,18.0,29.0,27,0.00,,,0.00,757,WeatherCatV1.15B25,2013-04-19 22:11:00,
2013-04-19 16:16:00,43.9,13.7,30.02,WNW,292,7.0,19.0,29,0.00,,,0.00,665,WeatherCatV1.15B25,2013-04-19 22:16:00,
2013-04-19 16:21:00,44.5,13.4,30.02,South,172,22.0,27.0,28,0.00,,,0.00,751,WeatherCatV1.15B25,2013-04-19 22:21:00,
2013-04-19 16:26:00,44.2,15.5,30.02,WSW,246,34.0,35.0,31,0.00,,,0.00,681,WeatherCatV1.15B25,2013-04-19 22:26:00,
2013-04-19 16:31:00,43.6,12.7,30.03,West,265,13.0,25.0,28,0.00,,,0.00,632,WeatherCatV1.15B25,2013-04-19 22:31:00,
2013-04-19 16:36:00,43.9,12.9,30.03,SSW,200,16.0,26.0,28,0.00,,,0.00,656,WeatherCatV1.15B25,2013-04-19 22:36:00,
2013-04-19 16:41:00,43.8,12.8,30.03,SW,227,14.0,24.0,28,0.00,,,0.00,669,WeatherCatV1.15B25,2013-04-19 22:41:00,
2013-04-19 16:46:00,43.2,12.3,30.03,WNW,285,12.0,22.0,28,0.00,,,0.00,625,WeatherCatV1.15B25,2013-04-19 22:46:00,
2013-04-19 16:51:00,43.1,11.4,30.03,SW,224,15.0,25.0,27,0.00,,,0.00,567,WeatherCatV1.15B25,2013-04-19 22:51:00,
2013-04-19 16:56:00,42.6,14.1,30.03,West,272,26.0,27.0,31,0.00,,,0.00,438,WeatherCatV1.15B25,2013-04-19 22:56:00,
2013-04-19 17:01:00,42.1,12.9,30.03,WSW,237,26.0,30.0,30,0.00,,,0.00,487,WeatherCatV1.15B25,2013-04-19 23:01:00,
2013-04-19 17:06:00,42.1,11.4,30.03,WSW,258,12.0,34.0,28,0.00,,,0.00,384,WeatherCatV1.15B25,2013-04-19 23:06:00,
2013-04-19 17:11:00,41.8,12.7,30.03,West,261,11.0,21.0,30,0.00,,,0.00,320,WeatherCatV1.15B25,2013-04-19 23:11:00,
2013-04-19 17:15:00,41.3,13.0,30.03,SW,236,21.0,30.0,31,0.00,,,0.00,320,WeatherCatV1.15B25,2013-04-19 23:15:00,
2013-04-19 17:20:00,41.1,12.8,30.03,WSW,246,11.0,24.0,31,0.00,,,0.00,259,WeatherCatV1.15B25,2013-04-19 23:20:00,
2013-04-19 17:25:00,40.8,13.3,30.03,West,261,13.0,26.0,32,0.00,,,0.00,246,WeatherCatV1.15B25,2013-04-19 23:25:00,
2013-04-19 17:30:00,40.6,13.1,30.04,WNW,299,13.0,18.0,32,0.00,,,0.00,225,WeatherCatV1.15B25,2013-04-19 23:30:00,
2013-04-19 17:35:00,40.5,13.0,30.04,WSW,258,6.0,24.0,32,0.00,,,0.00,222,WeatherCatV1.15B25,2013-04-19 23:35:00,
2013-04-19 17:40:00,40.3,13.5,30.04,WNW,292,11.0,19.0,33,0.00,,,0.00,234,WeatherCatV1.15B25,2013-04-19 23:40:00,
2013-04-19 17:45:00,40.2,13.4,30.04,West,268,8.0,18.0,33,0.00,,,0.00,252,WeatherCatV1.15B25,2013-04-19 23:45:00,
2013-04-19 17:50:00,40.2,12.0,30.04,West,263,13.0,20.0,31,0.00,,,0.00,225,WeatherCatV1.15B25,2013-04-19 23:50:00,
2013-04-19 17:55:00,40.1,12.6,30.04,WSW,251,8.0,18.0,32,0.00,,,0.00,238,WeatherCatV1.15B25,2013-04-19 23:55:00,
2013-04-19 18:00:00,39.9,12.5,30.03,SSW,208,12.0,22.0,32,0.00,,,0.00,216,WeatherCatV1.15B25,2013-04-20 00:00:00,
2013-04-19 18:05:00,39.8,13.1,30.03,WSW,254,7.0,20.0,33,0.00,,,0.00,194,WeatherCatV1.15B25,2013-04-20 00:05:00,
2013-04-19 18:10:00,39.8,13.1,30.03,WSW,257,16.0,21.0,33,0.00,,,0.00,178,WeatherCatV1.15B25,2013-04-20 00:10:00,
2013-04-19 18:15:00,39.6,12.9,30.04,WNW,292,10.0,26.0,33,0.00,,,0.00,172,WeatherCatV1.15B25,2013-04-20 00:15:00,
2013-04-19 18:20:00,39.5,12.8,30.04,South,191,11.0,19.0,33,0.00,,,0.00,153,WeatherCatV1.15B25,2013-04-20 00:20:00,
2013-04-19 18:25:00,39.3,14.0,30.04,NW,316,10.0,17.0,35,0.00,,,0.00,155,WeatherCatV1.15B25,2013-04-20 00:25:00,
2013-04-19 18:30:00,39.3,13.3,30.04,West,281,20.0,20.0,34,0.00,,,0.00,171,WeatherCatV1.15B25,2013-04-20 00:30:00,
2013-04-19 18:35:00,39.3,14.0,30.04,WSW,246,16.0,16.0,35,0.00,,,0.00,151,WeatherCatV1.15B25,2013-04-20 00:35:00,
2013-04-19 18:40:00,39.2,13.9,30.04,WNW,294,5.0,11.0,35,0.00,,,0.00,148,WeatherCatV1.15B25,2013-04-20 00:40:00,
2013-04-19 18:46:00,39.1,13.1,30.04,WNW,284,10.0,17.0,34,0.00,,,0.00,148,WeatherCatV1.15B25,2013-04-20 00:46:00,
2013-04-19 18:51:00,38.9,13.6,30.04,WSW,253,6.0,19.0,35,0.00,,,0.00,148,WeatherCatV1.15B25,2013-04-20 00:51:00,
2013-04-19 18:56:00,38.8,13.5,30.04,WSW,250,14.0,17.0,35,0.00,,,0.00,146,WeatherCatV1.15B25,2013-04-20 00:56:00,
2013-04-19 19:01:00,38.8,13.5,30.03,WNW,285,11.0,21.0,35,0.00,,,0.00,148,WeatherCatV1.15B25,2013-04-20 01:01:00,
2013-04-19 19:06:00,38.6,13.3,30.03,West,278,12.0,24.0,35,0.00,,,0.00,146,WeatherCatV1.15B25,2013-04-20 01:06:00,
2013-04-19 19:11:00,38.6,13.3,30.03,West,265,5.0,14.0,35,0.00,,,0.00,137,WeatherCatV1.15B25,2013-04-20 01:11:00,
2013-04-19 19:16:00,38.5,13.3,30.03,WSW,251,11.0,17.0,35,0.00,,,0.00,125,WeatherCatV1.15B25,2013-04-20 01:16:00,
2013-04-19 19:21:00,38.5,13.9,30.03,WSW,248,11.0,20.0,36,0.00,,,0.00,109,WeatherCatV1.15B25,2013-04-20 01:21:00,
2013-04-19 19:26:00,38.2,13.0,30.03,West,268,25.0,26.0,35,0.00,,,0.00,91,WeatherCatV1.15B25,2013-04-20 01:26:00,
2013-04-19 19:31:00,38.0,12.8,30.03,NW,313,22.0,27.0,35,0.00,,,0.00,72,WeatherCatV1.15B25,2013-04-20 01:31:00,
2013-04-19 19:36:00,37.9,14.0,30.03,WSW,256,21.0,22.0,37,0.00,,,0.00,49,WeatherCatV1.15B25,2013-04-20 01:36:00,
2013-04-19 19:41:00,37.8,13.3,30.03,WSW,237,8.0,24.0,36,0.00,,,0.00,14,WeatherCatV1.15B25,2013-04-20 01:41:00,
2013-04-19 19:46:00,37.5,14.2,30.02,NW,308,12.0,16.0,38,0.00,,,0.00,5,WeatherCatV1.15B25,2013-04-20 01:46:00,
2013-04-19 19:51:00,37.2,13.4,30.02,WNW,287,6.0,24.0,37,0.00,,,0.00,0,WeatherCatV1.15B25,2013-04-20 01:51:00,
2013-04-19 19:56:00,37.0,13.8,30.02,NNW,333,11.0,20.0,38,0.00,,,0.00,0,WeatherCatV1.15B25,2013-04-20 01:56:00,
2013-04-19 20:01:00,36.9,13.7,30.03,NNW,342,7.0,16.0,38,0.00,,,0.00,0,WeatherCatV1.15B25,2013-04-20 02:01:00,
2013-04-19 20:06:00,36.8,13.6,30.03,WNW,285,9.0,17.0,38,0.00,,,0.00,0,WeatherCatV1.15B25,2013-04-20 02:06:00,
2013-04-19 20:11:00,36.6,13.4,30.03,NW,320,20.0,20.0,38,0.00,,,0.00,0,WeatherCatV1.15B25,2013-04-20 02:11:00,
2013-04-19 20:16:00,36.5,13.3,30.03,NNW,333,7.0,17.0,38,0.00,,,0.00,0,WeatherCatV1.15B25,2013-04-20 02:16:00,
2013-04-19 20:21:00,36.5,13.3,30.03,NW,322,16.0,16.0,38,0.00,,,0.00,0,WeatherCatV1.15B25,2013-04-20 02:21:00,
2013-04-19 20:26:00,36.3,13.2,30.03,NW,309,12.0,19.0,38,0.00,,,0.00,0,WeatherCatV1.15B25,2013-04-20 02:26:00,
2013-04-19 20:31:00,36.3,13.2,30.03,NW,304,6.0,17.0,38,0.00,,,0.00,0,WeatherCatV1.15B25,2013-04-20 02:31:00,
2013-04-19 20:36:00,36.2,13.7,30.03,North,352,10.0,14.0,39,0.00,,,0.00,0,WeatherCatV1.15B25,2013-04-20 02:36:00,
2013-04-19 20:41:00,36.2,13.7,30.03,WNW,287,11.0,16.0,39,0.00,,,0.00,0,WeatherCatV1.15B25,2013-04-20 02:41:00,
2013-04-19 20:46:00,36.2,13.7,30.03,WNW,295,17.0,21.0,39,0.00,,,0.00,0,WeatherCatV1.15B25,2013-04-20 02:46:00,
2013-04-19 20:51:00,36.2,13.7,30.03,WNW,299,12.0,24.0,39,0.00,,,0.00,0,WeatherCatV1.15B25,2013-04-20 02:51:00,
2013-04-19 20:56:00,36.2,13.7,30.03,NW,319,15.0,16.0,39,0.00,,,0.00,0,WeatherCatV1.15B25,2013-04-20 02:56:00,
2013-04-19 21:01:00,36.2,13.1,30.04,NW,320,18.0,25.0,38,0.00,,,0.00,0,WeatherCatV1.15B25,2013-04-20 03:01:00,
2013-04-19 21:06:00,36.2,14.2,30.04,NW,311,12.0,16.0,40,0.00,,,0.00,0,WeatherCatV1.15B25,2013-04-20 03:06:00,
2013-04-19 21:10:00,36.2,13.7,30.04,NW,313,15.0,22.0,39,0.00,,,0.00,0,WeatherCatV1.15B25,2013-04-20 03:10:00,
2013-04-19 21:11:00,36.0,14.0,30.04,NW,320,13.0,21.0,40,0.00,,,0.00,0,WeatherCatV1.15B25,2013-04-20 03:11:00,
2013-04-19 21:15:00,36.0,14.1,30.04,NW,311,13.0,21.0,40,0.00,,,0.00,0,WeatherCatV1.15B25,2013-04-20 03:15:00,
2013-04-19 21:20:00,35.9,14.0,30.04,NW,315,13.0,25.0,40,0.00,,,0.00,0,WeatherCatV1.15B25,2013-04-20 03:20:00,
2013-04-19 21:25:00,35.9,14.0,30.04,NW,315,13.0,25.0,40,0.00,,,0.00,0,WeatherCatV1.15B25,2013-04-20 03:25:00,
2013-04-19 21:30:00,35.9,14.0,30.04,NW,315,13.0,25.0,40,0.00,,,0.00,0,WeatherCatV1.15B25,2013-04-20 03:30:00,
2013-04-19 21:35:00,35.9,13.4,30.04,NW,315,12.0,26.0,39,0.00,,,0.00,0,WeatherCatV1.15B25,2013-04-20 03:35:00,
2013-04-19 21:40:00,35.9,13.4,30.04,NW,315,12.0,26.0,39,0.00,,,0.00,0,WeatherCatV1.15B25,2013-04-20 03:40:00,
2013-04-19 21:45:00,35.9,13.4,30.04,NW,315,12.0,26.0,39,0.00,,,0.00,0,WeatherCatV1.15B25,2013-04-20 03:45:00,
2013-04-19 21:50:00,35.8,13.3,30.04,NW,315,11.0,20.0,39,0.00,,,0.00,0,WeatherCatV1.15B25,2013-04-20 03:50:00,
2013-04-19 21:55:00,35.8,13.3,30.04,NW,315,11.0,20.0,39,0.00,,,0.00,0,WeatherCatV1.15B25,2013-04-20 03:55:00,
2013-04-19 22:00:00,35.8,13.3,30.04,NW,315,11.0,20.0,39,0.00,,,0.00,0,WeatherCatV1.15B25,2013-04-20 04:00:00,
2013-04-19 22:05:00,35.8,13.3,30.04,NW,315,13.0,25.0,39,0.00,,,0.00,0,WeatherCatV1.15B25,2013-04-20 04:05:00,
2013-04-19 22:10:00,35.8,13.3,30.04,NW,315,13.0,25.0,39,0.00,,,0.00,0,WeatherCatV1.15B25,2013-04-20 04:10:00,
2013-04-19 22:15:00,35.8,13.3,30.04,NW,315,13.0,25.0,39,0.00,,,0.00,0,WeatherCatV1.15B25,2013-04-20 04:15:00,
2013-04-19 22:20:00,35.6,13.7,30.04,NW,315,12.0,24.0,40,0.00,,,0.00,0,WeatherCatV1.15B25,2013-04-20 04:20:00,
2013-04-19 22:25:00,35.6,13.7,30.04,NW,315,12.0,24.0,40,0.00,,,0.00,0,WeatherCatV1.15B25,2013-04-20 04:25:00,
2013-04-19 22:30:00,35.6,13.7,30.04,NW,315,12.0,24.0,40,0.00,,,0.00,0,WeatherCatV1.15B25,2013-04-20 04:30:00,
2013-04-19 22:35:00,35.5,13.0,30.03,NW,315,11.0,26.0,39,0.00,,,0.00,0,WeatherCatV1.15B25,2013-04-20 04:35:00,
2013-04-19 22:40:00,35.5,13.0,30.03,NW,315,11.0,26.0,39,0.00,,,0.00,0,WeatherCatV1.15B25,2013-04-20 04:40:00,
2013-04-19 22:45:00,35.5,13.0,30.03,NW,315,11.0,26.0,39,0.00,,,0.00,0,WeatherCatV1.15B25,2013-04-20 04:45:00,
2013-04-19 22:50:00,35.5,13.6,30.04,NW,315,11.0,20.0,40,0.00,,,0.00,0,WeatherCatV1.15B25,2013-04-20 04:50:00,
2013-04-19 22:55:00,35.5,13.6,30.04,NW,315,11.0,20.0,40,0.00,,,0.00,0,WeatherCatV1.15B25,2013-04-20 04:55:00,
2013-04-19 23:00:00,35.5,13.6,30.04,NW,315,11.0,20.0,40,0.00,,,0.00,0,WeatherCatV1.15B25,2013-04-20 05:00:00,
2013-04-19 23:05:00,35.3,14.0,30.03,NW,315,11.0,21.0,41,0.00,,,0.00,0,WeatherCatV1.15B25,2013-04-20 05:05:00,
2013-04-19 23:10:00,35.3,14.0,30.03,NW,315,11.0,21.0,41,0.00,,,0.00,0,WeatherCatV1.15B25,2013-04-20 05:10:00,
2013-04-19 23:15:00,35.3,14.0,30.03,NW,315,11.0,21.0,41,0.00,,,0.00,0,WeatherCatV1.15B25,2013-04-20 05:15:00,
2013-04-19 23:20:00,35.2,13.9,30.03,NW,315,11.0,20.0,41,0.00,,,0.00,0,WeatherCatV1.15B25,2013-04-20 05:20:00,
2013-04-19 23:25:00,35.2,13.9,30.03,NW,315,11.0,20.0,41,0.00,,,0.00,0,WeatherCatV1.15B25,2013-04-20 05:25:00,
2013-04-19 23:30:00,35.2,13.9,30.03,NW,315,11.0,20.0,41,0.00,,,0.00,0,WeatherCatV1.15B25,2013-04-20 05:30:00,
2013-04-19 23:35:00,34.9,14.2,30.03,NW,315,9.0,18.0,42,0.00,,,0.00,0,WeatherCatV1.15B25,2013-04-20 05:35:00,
2013-04-19 23:40:00,34.9,14.2,30.03,NW,315,9.0,18.0,42,0.00,,,0.00,0,WeatherCatV1.15B25,2013-04-20 05:40:00,
2013-04-19 23:45:00,34.9,14.2,30.03,NW,315,9.0,18.0,42,0.00,,,0.00,0,WeatherCatV1.15B25,2013-04-20 05:45:00,
2013-04-19 23:50:00,34.7,15.0,30.03,NW,315,9.0,18.0,44,0.00,,,0.00,0,WeatherCatV1.15B25,2013-04-20 05:50:00,
2013-04-19 23:55:00,34.7,15.0,30.03,NW,315,9.0,18.0,44,0.00,,,0.00,0,WeatherCatV1.15B25,2013-04-20 05:55:00,